Stations météo

réclame
Mon MeteoGroup
Sete, France (7641): Température de l'air & dewpoint: 17.10.2018 07:00:00 - 23.10.2018 07:00:00 (CEST)Sete, France (7641): Vitesse du vent & gusts: 17.10.2018 07:00:00 - 23.10.2018 07:00:00 (CEST)Sete, France (7641): Direction du vent: 17.10.2018 07:00:00 - 23.10.2018 07:00:00 (CEST)Sete, France (7641): reduced air pressure: 17.10.2018 07:00:00 - 23.10.2018 07:00:00 (CEST)Sete, France (7641): visibility: 17.10.2018 07:00:00 - 23.10.2018 07:00:00 (CEST)Sete, France (7641): Quantités de précipitations: 17.10.2018 07:00:00 - 23.10.2018 07:00:00 (CEST)
Date & Time tt [°C] td [°C] ff [km/h] ff [knt] fx [km/h] fx [knt] dd ppp [hPa] vv [km] rr [mm]
23.10.2018 07:00:00 14,1 3,5 23 12 32 17 NNW 1025,2 - 0,0
23.10.2018 06:00:00 13,7 3,2 21 11 35 19 NNW 1025,2 - 0,0
23.10.2018 05:00:00 13,9 3,4 22 12 39 21 NNW 1024,8 20 0,0
23.10.2018 04:00:00 14,6 3,7 24 13 40 22 NNW 1024,8 - 0,0
23.10.2018 03:00:00 14,7 3,8 21 11 33 18 NNW 1024,7 - 0,0
23.10.2018 02:00:00 15,2 2,7 18 10 28 15 NNW 1024,8 - 0,0
23.10.2018 01:00:00 15,0 3,8 18 10 31 17 N 1024,8 - 0,0
23.10.2018 00:00:00 15,8 3,9 19 11 32 17 NW 1024,1 - 0,0
22.10.2018 23:00:00 16,3 6,7 16 9 23 13 NNW 1024,1 - 0,0
22.10.2018 22:00:00 16,3 9,9 15 8 32 18 N 1023,7 - 0,0
22.10.2018 21:00:00 17,0 10,1 19 10 29 16 NNW 1023,0 - 0,0
22.10.2018 20:00:00 17,6 10,7 13 7 23 12 NW 1022,2 10 0,0
22.10.2018 19:00:00 17,3 11,3 7 4 10 5 N 1021,4 - 0,0
22.10.2018 18:00:00 18,0 11,5 5 3 13 7 S 1020,8 - 0,0
22.10.2018 17:00:00 18,7 10,3 6 3 17 9 S 1020,7 15 0,0
22.10.2018 16:00:00 19,8 10,5 8 5 19 10 SSE 1020,6 - 0,0
22.10.2018 15:00:00 19,7 10,4 13 7 19 10 S 1021,0 - 0,0
22.10.2018 14:00:00 19,5 9,7 10 5 16 9 S 1021,5 - 0,0
22.10.2018 13:00:00 18,9 8,2 5 3 14 8 SE 1022,0 - 0,0
22.10.2018 12:00:00 17,8 7,2 9 5 20 11 E 1022,1 - 0,0
22.10.2018 11:00:00 17,8 8,6 7 4 18 10 E 1021,7 15 0,0
22.10.2018 10:00:00 17,5 8,6 7 4 16 9 E 1021,9 - 0,0
22.10.2018 09:00:00 16,4 7,6 4 2 16 8 SSE 1021,5 - 0,0
22.10.2018 08:00:00 16,6 8,0 8 5 14 7 W 1020,7 15 0,0
22.10.2018 07:00:00 17,4 4,3 8 4 18 10 NNW 1020,7 - 0,0
22.10.2018 06:00:00 16,9 5,5 12 7 23 12 NNW 1020,5 - 0,0
22.10.2018 05:00:00 16,8 5,1 10 6 31 17 NNW 1020,3 20 0,0
22.10.2018 04:00:00 17,1 5,1 18 10 31 17 N 1020,1 - 0,0
22.10.2018 03:00:00 16,5 5,4 19 10 28 15 NNW 1020,0 - 0,0
22.10.2018 02:00:00 17,9 5,5 10 6 21 11 NNE 1019,2 - 0,0
22.10.2018 01:00:00 18,3 6,8 12 7 23 12 N 1018,5 - 0,0
22.10.2018 00:00:00 18,0 8,8 11 6 32 17 N 1018,0 - 0,0
21.10.2018 23:00:00 19,5 9,9 25 13 44 24 NW 1016,9 - 0,0
21.10.2018 22:00:00 19,9 10,6 24 13 41 22 NW 1016,6 - 0,0
21.10.2018 21:00:00 20,0 11,0 16 9 31 17 NW 1016,6 - 0,0
21.10.2018 20:00:00 20,1 11,3 17 9 36 20 NNW 1016,5 12 0,0
21.10.2018 19:00:00 22,1 10,3 22 12 39 21 NW 1015,6 - 0,0
21.10.2018 18:00:00 24,1 8,1 16 9 30 16 WNW 1015,5 - 0,0
21.10.2018 17:00:00 24,7 7,3 11 6 27 15 WNW 1016,0 15 0,0
21.10.2018 16:00:00 24,1 12,4 14 8 28 15 WSW 1016,7 - 0,0
21.10.2018 15:00:00 24,2 12,8 8 4 24 13 SW 1017,8 - 0,0
21.10.2018 14:00:00 22,4 12,9 10 5 24 13 SW 1018,9 15 0,0
21.10.2018 13:00:00 20,8 13,0 16 8 25 14 SSW 1020,0 - 0,0
21.10.2018 12:00:00 19,8 11,8 11 6 19 10 SSW 1020,9 - 0,0
21.10.2018 11:00:00 20,2 10,6 3 1 10 5 NNW 1021,9 10 0,0
21.10.2018 10:00:00 18,4 12,2 4 2 9 5 ENE 1022,2 - 0,0
21.10.2018 09:00:00 15,9 13,0 5 3 8 5 N 1022,0 - 0,0
21.10.2018 08:00:00 15,9 12,6 3 2 7 4 SSE 1021,4 10 0,0
21.10.2018 07:00:00 17,6 11,8 3 2 11 6 SW 1021,7 - 0,0
21.10.2018 06:00:00 17,2 11,5 4 2 7 4 W 1022,0 - 0,0
21.10.2018 05:00:00 17,2 11,2 0 0 9 5 N 1022,3 15 0,0
21.10.2018 04:00:00 17,2 11,0 5 3 14 7 N 1022,7 - 0,0
21.10.2018 03:00:00 18,1 11,6 3 2 13 7 NNW 1022,7 - 0,0
21.10.2018 02:00:00 18,0 11,8 9 5 12 6 WSW 1022,8 - 0,0
21.10.2018 01:00:00 18,3 11,6 0 0 6 3 N 1023,1 - 0,0
21.10.2018 00:00:00 18,7 11,5 5 3 14 8 N 1023,5 - 0,0
20.10.2018 23:00:00 19,3 11,3 10 5 18 10 N 1023,4 - 0,0
20.10.2018 22:00:00 19,8 13,0 12 6 23 12 N 1023,2 - 0,0
20.10.2018 21:00:00 20,0 13,5 13 7 21 12 NNW 1023,1 - 0,0
20.10.2018 20:00:00 19,8 13,3 9 5 16 9 WNW 1023,0 15 0,0
20.10.2018 19:00:00 19,6 14,4 4 2 14 8 WNW 1022,5 - 0,0
20.10.2018 18:00:00 20,7 15,3 8 4 14 8 SW 1022,1 - 0,0
20.10.2018 17:00:00 21,2 14,4 4 2 7 4 S 1022,0 15 0,0
20.10.2018 16:00:00 21,5 14,6 4 2 13 7 SSE 1022,2 - 0,0
20.10.2018 15:00:00 21,8 14,2 6 3 18 10 E 1022,4 - 0,0
20.10.2018 14:00:00 21,8 13,2 6 4 23 12 ENE 1022,8 15 0,0
20.10.2018 13:00:00 21,7 12,0 13 7 38 20 ENE 1023,4 - 0,0
20.10.2018 12:00:00 20,9 11,0 22 12 37 20 NNE 1023,6 - 0,0
20.10.2018 11:00:00 20,5 11,4 18 10 29 15 NNE 1023,6 15 0,0
20.10.2018 10:00:00 19,0 11,3 17 9 27 15 N 1023,1 - 0,0
20.10.2018 09:00:00 17,0 12,9 18 10 26 14 N 1022,1 - 0,0
20.10.2018 08:00:00 17,0 12,9 13 7 22 12 N 1021,5 15 0,0
20.10.2018 07:00:00 16,9 13,2 10 6 16 9 N 1021,2 - 0,0
20.10.2018 06:00:00 18,0 13,3 8 4 12 6 NNE 1020,6 - 0,0
20.10.2018 05:00:00 18,9 12,6 5 3 13 7 NE 1020,1 - 0,0
20.10.2018 04:00:00 19,3 12,6 9 5 18 10 NNE 1020,1 - 0,0
20.10.2018 03:00:00 19,4 12,6 10 6 20 11 NNE 1020,2 - 0,0
20.10.2018 02:00:00 19,3 13,0 11 6 18 10 N 1020,2 - 0,0
20.10.2018 01:00:00 18,9 13,7 6 3 18 10 N 1020,2 - 0,0
20.10.2018 00:00:00 20,1 13,8 13 7 18 10 NNW 1019,8 - 0,0
19.10.2018 23:00:00 20,5 13,2 11 6 16 9 NNW 1019,4 - 0,0
19.10.2018 22:00:00 20,2 12,2 6 3 9 5 NNW 1019,0 - 0,0
19.10.2018 21:00:00 20,8 12,5 6 3 8 5 WNW 1018,6 - 0,0
19.10.2018 20:00:00 20,1 13,5 0 0 5 3 N 1018,4 15 0,0
19.10.2018 19:00:00 20,7 14,1 2 1 5 3 NW 1017,8 - 0,0
19.10.2018 18:00:00 21,5 13,9 4 2 6 3 N 1017,4 - 0,0
19.10.2018 17:00:00 21,9 14,0 2 1 9 5 ESE 1017,5 12 0,0
19.10.2018 16:00:00 22,6 14,4 3 2 10 5 E 1017,4 - 0,0
19.10.2018 15:00:00 22,6 13,9 5 3 14 8 E 1017,4 - 0,0
19.10.2018 14:00:00 22,3 13,4 6 3 18 10 ENE 1017,8 12 0,0
19.10.2018 13:00:00 21,9 11,6 8 5 22 12 ENE 1018,2 - 0,0
19.10.2018 12:00:00 21,1 11,1 12 6 29 15 NE 1018,1 - 0,0
19.10.2018 11:00:00 19,1 10,4 17 9 27 15 NNE 1018,2 - 0,0
19.10.2018 10:00:00 18,4 10,2 13 7 27 15 NNE 1018,0 - 0,0
19.10.2018 09:00:00 18,7 9,7 20 11 34 19 NNE 1016,8 - 0,0
19.10.2018 08:00:00 18,4 10,0 22 12 32 17 N 1016,0 20 0,0
19.10.2018 07:00:00 18,4 10,0 19 10 35 19 N 1015,9 - 0,0
19.10.2018 06:00:00 18,2 10,6 20 11 31 17 NNE 1015,7 - 0,0
19.10.2018 05:00:00 18,0 10,6 18 10 26 14 N 1015,7 20 0,0
19.10.2018 04:00:00 18,1 11,2 14 7 29 16 NNE 1015,5 - 0,0
19.10.2018 03:00:00 19,0 11,1 19 11 27 15 N 1015,3 - 0,0
19.10.2018 02:00:00 19,1 12,1 12 6 29 15 NNE 1015,5 - 0,0
19.10.2018 01:00:00 19,5 12,0 16 9 24 13 N 1015,3 - 0,0
19.10.2018 00:00:00 19,8 12,5 13 7 18 10 N 1015,2 - 0,0
18.10.2018 23:00:00 20,1 12,6 10 5 19 11 N 1014,9 - 0,0
18.10.2018 22:00:00 20,3 13,0 11 6 17 9 NNW 1014,5 - 0,0
18.10.2018 21:00:00 20,2 13,4 10 6 16 9 NNW 1014,4 - 0,0
18.10.2018 20:00:00 20,4 14,1 5 3 16 9 WNW 1013,9 20 0,0
18.10.2018 19:00:00 20,7 15,7 11 6 16 9 WNW 1013,3 - 0,0
18.10.2018 18:00:00 22,1 12,9 6 4 14 7 NNW 1013,0 - 0,0
18.10.2018 17:00:00 22,5 14,1 6 3 13 7 ENE 1013,1 18 0,0
18.10.2018 16:00:00 22,1 14,2 6 4 16 9 ENE 1013,3 - 0,0
18.10.2018 15:00:00 22,5 13,3 8 5 22 12 ENE 1013,5 - 0,0
18.10.2018 14:00:00 22,2 11,9 13 7 27 15 NE 1013,9 - 0,0
18.10.2018 13:00:00 21,4 11,4 16 9 29 16 NNE 1014,5 - 0,0
18.10.2018 12:00:00 20,3 12,3 19 10 30 16 NNE 1014,5 - 0,0
18.10.2018 11:00:00 19,1 12,6 18 10 31 17 NNE 1014,5 - 0,0
18.10.2018 10:00:00 18,7 12,4 21 11 32 18 NNE 1014,4 - 0,0
18.10.2018 09:00:00 17,9 14,4 18 10 32 17 N 1014,2 - 0,0
18.10.2018 08:00:00 17,4 14,1 21 11 30 16 N 1013,8 - 0,0
18.10.2018 07:00:00 17,1 13,4 18 10 31 17 NNE 1013,8 - 0,0
18.10.2018 06:00:00 16,5 15,0 3 2 28 15 SE 1013,9 - 0,4
18.10.2018 05:00:00 16,4 15,1 16 8 23 13 NNW 1013,5 10 0,4
18.10.2018 04:00:00 17,2 15,5 6 4 16 9 NE 1014,2 - 1,4
18.10.2018 03:00:00 17,4 14,5 11 6 16 9 N 1014,4 - 0,0
18.10.2018 02:00:00 17,5 14,2 11 6 18 10 N 1014,8 - 0,2
18.10.2018 01:00:00 18,2 13,3 13 7 20 11 NNW 1014,8 - 0,0
18.10.2018 00:00:00 17,7 15,1 8 4 14 8 WSW 1015,1 - 0,4
17.10.2018 23:00:00 18,1 15,4 9 5 21 12 N 1015,4 - 0,0
17.10.2018 22:00:00 19,0 14,0 11 6 24 13 NNE 1015,2 - 0,0
17.10.2018 21:00:00 18,1 14,4 16 8 23 13 NNW 1014,9 - 0,0
17.10.2018 20:00:00 19,0 15,1 13 7 20 11 N 1014,8 10 0,0
17.10.2018 19:00:00 19,4 14,2 3 2 10 5 N 1014,5 - 0,0
17.10.2018 18:00:00 19,9 14,0 6 3 14 8 NNW 1014,4 - 0,0
17.10.2018 17:00:00 20,0 14,1 9 5 16 9 NNW 1014,8 - 0,0
17.10.2018 16:00:00 20,0 14,6 5 3 19 11 NW 1015,0 - 0,0
17.10.2018 15:00:00 19,2 14,9 11 6 30 16 NNW 1015,2 - 0,0
17.10.2018 14:00:00 18,0 14,9 14 7 27 15 NW 1015,9 12 0,0
17.10.2018 13:00:00 17,8 15,6 16 9 26 14 NNW 1016,8 - 0,2
17.10.2018 12:00:00 16,5 15,2 4 2 26 14 NNW 1017,3 - 2,2
17.10.2018 11:00:00 17,1 14,2 8 5 15 8 NE 1017,7 12 0,0
17.10.2018 10:00:00 16,5 14,0 5 3 16 8 NNE 1017,4 - 0,0
17.10.2018 09:00:00 17,1 13,8 8 5 18 10 NNE 1017,4 - 0,0
17.10.2018 08:00:00 17,8 12,9 13 7 24 13 WNW 1016,9 12 0,0
17.10.2018 07:00:00 18,2 12,9 18 10 26 14 WNW 1017,0 - 0,0

tt = Température de l'air
td = dewpoint
ff = Vitesse du vent
fx = gusts
dd = Direction du vent
ppp = reduced air pressure
vv = visibility
rr = Quantités de précipitations

stations d'obs. à proximité